FW2402 Weather Reports


time (UTC)temp
C
wind
direction
speed
KPH
gust
KPH
rain 1hr
cm
rain 24hr
cm
rain mn
cm
humidity
%
barometer
mb
20260831061025 23 0 0.0 0.0 0.00 0.10 0.00 96 1016.1
20260831060525 23 0 0.0 0.0 0.00 0.10 0.00 96 1016.1
20260831060046 22 0 0.0 0.0 0.00 0.10 0.00 96 1016.2
20260831055524 22 0 0.0 0.0 0.00 0.10 0.00 96 1016.3
20260831055020 22 0 0.0 0.0 0.00 0.10 0.00 96 1016.4
20260831054543 23 0 0.0 0.0 0.00 0.10 0.00 96 1016.5
20260831054024 22 0 0.0 0.0 0.00 0.10 0.00 96 1016.5
20260831053524 22 0 0.0 0.0 0.00 0.10 0.00 96 1016.6
20260831053042 23 0 0.0 0.0 0.00 0.10 0.00 96 1016.5
20260831052525 23 0 0.0 0.0 0.00 0.10 0.00 96 1016.5
20260831052028 23 0 0.0 0.0 0.00 0.10 0.00 96 1016.6
20260831051544 23 0 0.0 0.0 0.00 0.10 0.00 96 1016.4
20260831051023 23 0 0.0 0.0 0.00 0.10 0.00 96 1016.5
20260831050524 23 0 0.0 0.0 0.00 0.10 0.00 96 1016.4
20260831050045 23 0 0.0 0.0 0.00 0.10 0.00 96 1016.5
20260831045523 23 0 0.0 0.0 0.00 0.10 0.00 96 1016.4
20260831045023 23 0 0.0 0.0 0.00 0.10 0.00 96 1016.5
20260831044602 23 0 0.0 0.0 0.00 0.10 0.00 96 1016.5
20260831044023 23 0 0.0 0.0 0.00 0.10 0.00 96 1016.5
20260831043518 23 0 0.0 0.0 0.00 0.10 0.00 96 1016.7
20260831043044 23 0 0.0 0.0 0.00 0.10 0.00 95 1016.7
20260831042525 23 0 0.0 0.0 0.00 0.10 0.00 95 1016.6
20260831042024 23 0 0.0 0.0 0.00 0.10 0.00 95 1016.7
20260831041556 23 0 0.0 0.0 0.00 0.10 0.00 95 1016.5
20260831041024 23 0 0.0 0.0 0.00 0.10 0.00 95 1016.5
20260831040523 23 0 0.0 0.0 0.00 0.10 0.00 95 1016.8
20260831040044 23 0 0.0 0.0 0.00 0.10 0.00 95 1016.8
20260831035520 23 0 0.0 0.0 0.00 0.10 0.10 95 1016.8
20260831035020 23 0 0.0 0.0 0.00 0.10 0.10 95 1016.7
20260831034541 23 0 0.0 0.0 0.00 0.10 0.10 95 1016.8
20260831034023 23 0 0.0 0.0 0.00 0.10 0.10 95 1016.7
20260831033525 23 0 0.0 0.0 0.00 0.10 0.10 95 1016.8
20260831033043 23 0 0.0 0.0 0.00 0.10 0.10 95 1016.8
20260831032523 23 0 0.0 0.0 0.00 0.10 0.10 95 1016.7
20260831032023 23 0 0.0 0.0 0.00 0.10 0.10 95 1016.9
20260831031541 23 0 0.0 0.0 0.00 0.10 0.10 95 1016.7
20260831031020 23 0 0.0 0.0 0.00 0.10 0.10 95 1016.7
20260831030521 23 0 0.0 0.0 0.00 0.10 0.10 95 1016.8
20260831030042 23 0 0.0 0.0 0.00 0.10 0.10 95 1016.8
20260831025525 23 0 0.0 0.0 0.00 0.10 0.10 95 1016.9
20260831025023 23 0 0.0 0.0 0.00 0.10 0.10 94 1016.9
20260831024548 23 0 0.0 0.0 0.00 0.10 0.10 94 1016.9
20260831024024 23 0 0.0 0.0 0.00 0.10 0.10 94 1017.0
20260831023522 23 0 0.0 0.0 0.00 0.10 0.10 94 1016.9
20260831023041 24 0 0.0 0.0 0.00 0.10 0.10 94 1016.9
20260831022519 23 0 0.0 0.0 0.00 0.10 0.10 94 1017.0
20260831022018 24 0 0.0 0.0 0.00 0.10 0.10 94 1016.8
20260831021542 24 0 0.0 0.0 0.00 0.10 0.10 94 1016.8
20260831021018 24 0 0.0 1.6 0.00 0.10 0.10 94 1016.9
20260831020520 24 0 0.0 1.6 0.00 0.10 0.10 94 1017.0
20260831020041 24 0 0.0 1.6 0.00 0.10 0.10 93 1017.0
20260831015520 24 0 0.0 1.6 0.00 0.10 0.10 93 1016.9
20260831015021 24 0 0.0 0.0 0.00 0.10 0.10 93 1016.8
20260831014542 24 0 0.0 0.0 0.00 0.10 0.10 93 1016.9
20260831014020 24 0 0.0 4.8 0.00 0.10 0.10 93 1016.8
20260831013525 24 0 0.0 4.8 0.00 0.10 0.10 92 1016.8
20260831013043 24 0 0.0 4.8 0.00 0.10 0.10 92 1016.7
20260831012525 24 269 0.0 0.0 0.00 0.10 0.10 92 1016.7
20260831012023 24 0 0.0 0.0 0.00 0.10 0.10 92 1016.7
20260831011542 24 0 0.0 3.2 0.00 0.10 0.10 92 1016.6
20260831011024 24 0 0.0 4.8 0.00 0.10 0.10 92 1016.8
20260831010526 25 0 1.6 4.8 0.00 0.10 0.10 92 1016.7
20260831010046 25 269 1.6 4.8 0.00 0.10 0.10 92 1016.8
20260831005520 25 269 1.6 4.8 0.00 0.10 0.10 92 1016.7
20260831005023 25 269 3.2 4.8 0.00 0.10 0.10 92 1016.8
20260831004543 25 269 1.6 4.8 0.00 0.10 0.10 91 1016.7
20260831004024 25 259 0.0 4.8 0.00 0.10 0.10 91 1016.6
20260831003526 25 0 0.0 1.6 0.00 0.10 0.10 90 1016.6
20260831003041 25 0 0.0 3.2 0.00 0.10 0.10 89 1016.6
20260831002525 25 0 0.0 3.2 0.00 0.10 0.10 89 1016.4
20260831002025 25 82 0.0 4.8 0.00 0.10 0.10 89 1016.3
20260831001545 25 0 0.0 4.8 0.00 0.10 0.10 88 1016.4
20260831001023 25 32 0.0 4.8 0.00 0.10 0.10 89 1016.2
20260831000523 25 281 1.6 6.4 0.00 0.10 0.10 89 1016.4
20260831000044 25 264 1.6 6.4 0.00 0.10 0.10 88 1016.3
20260830235521 25 246 1.6 8.0 0.00 0.10 0.10 87 1016.3
20260830235029 26 337 1.6 8.0 0.00 0.10 0.10 86 1016.4
20260830234556 26 40 4.8 8.0 0.00 0.10 0.10 87 1016.3
20260830234024 26 92 3.2 6.4 0.00 0.10 0.10 87 1016.3
20260830233528 25 108 0.0 4.8 0.00 0.10 0.10 88 1016.2
20260830233048 25 0 0.0 0.0 0.00 0.10 0.10 89 1016.3
20260830232526 25 0 0.0 0.0 0.00 0.10 0.10 88 1016.3
20260830232025 26 0 0.0 0.0 0.00 0.10 0.10 88 1016.3
20260830231544 26 0 0.0 0.0 0.00 0.10 0.10 88 1016.2
20260830231021 26 0 0.0 0.0 0.00 0.10 0.10 88 1016.2
20260830230519 26 0 0.0 0.0 0.00 0.10 0.10 88 1016.2
20260830230046 26 0 0.0 0.0 0.00 0.10 0.10 87 1016.2
20260830225522 26 0 0.0 3.2 0.00 0.10 0.10 86 1016.3
20260830225024 26 0 0.0 3.2 0.00 0.10 0.10 85 1016.3
20260830224542 26 108 0.0 3.2 0.00 0.10 0.10 85 1016.4
20260830224025 26 119 0.0 4.8 0.00 0.10 0.10 85 1016.4
20260830223524 26 121 1.6 6.4 0.00 0.10 0.10 85 1016.3
20260830223045 26 98 1.6 6.4 0.00 0.10 0.10 84 1016.3
20260830222523 27 88 3.2 6.4 0.00 0.10 0.10 83 1016.1
20260830222025 27 51 3.2 6.4 0.00 0.10 0.10 83 1016.1
20260830221542 27 67 3.2 6.4 0.00 0.10 0.10 83 1016.2
20260830221018 27 113 1.6 8.0 0.00 0.10 0.10 83 1016.2
20260830220520 27 87 3.2 12.9 0.00 0.10 0.10 81 1016.0
20260830220044 27 60 4.8 17.7 0.00 0.10 0.10 81 1015.8
20260830215523 27 105 8.0 19.3 0.00 0.10 0.10 79 1015.8
20260830215028 27 61 11.3 19.3 0.00 0.10 0.10 78 1015.7
20260830214603 27 88 8.0 19.3 0.00 0.10 0.10 78 1015.7
20260830214024 27 100 9.7 19.3 0.00 0.10 0.10 78 1015.8
20260830213523 28 46 8.0 20.9 0.00 0.10 0.10 79 1015.8
20260830213045 28 86 11.3 20.9 0.00 0.10 0.10 79 1015.7
20260830212520 28 104 8.0 17.7 0.00 0.10 0.10 78 1015.6
20260830212020 28 58 6.4 19.3 0.00 0.10 0.10 77 1015.7
20260830211547 29 95 3.2 19.3 0.00 0.10 0.10 78 1015.6
20260830211025 30 82 9.7 19.3 0.00 0.10 0.10 74 1015.4
20260830210525 30 63 11.3 19.3 0.00 0.10 0.10 72 1015.2
20260830210048 30 117 8.0 19.3 0.00 0.10 0.10 73 1015.1
20260830205525 30 111 6.4 19.3 0.00 0.10 0.10 77 1015.1
20260830205021 29 95 8.0 19.3 0.00 0.10 0.10 78 1015.1
20260830204543 30 88 11.3 19.3 0.00 0.10 0.10 77 1015.1
20260830204023 30 127 9.7 19.3 0.00 0.10 0.10 78 1015.1
20260830203519 29 92 11.3 24.1 0.00 0.10 0.10 79 1015.0
20260830203049 29 50 12.9 24.1 0.00 0.10 0.10 79 1014.9
20260830202521 29 45 16.1 29.0 0.00 0.10 0.10 79 1015.0
20260830202020 30 83 12.9 29.0 0.00 0.10 0.10 79 1015.0
20260830201544 29 103 16.1 29.0 0.00 0.10 0.10 80 1015.1
20260830201025 30 134 17.7 29.0 0.00 0.10 0.10 76 1015.4
20260830200524 31 77 11.3 20.9 0.00 0.10 0.10 73 1015.2
20260830200039 31 105 6.4 14.5 0.00 0.10 0.10 76 1015.2
20260830195525 31 136 6.4 16.1 0.03 0.10 0.10 76 1015.2
20260830195023 31 150 9.7 16.1 0.05 0.10 0.10 78 1015.2
20260830194544 31 53 4.8 9.7 0.10 0.10 0.10 73 1015.3
20260830194024 31 115 3.2 9.7 0.10 0.10 0.10 80 1015.4
20260830193519 31 107 0.0 8.0 0.10 0.10 0.10 80 1015.5
20260830193104 31 205 3.2 8.0 0.10 0.10 0.10 78 1015.5
20260830192526 31 163 0.0 8.0 0.10 0.10 0.10 80 1015.6
20260830192024 31 260 3.2 8.0 0.10 0.10 0.10 81 1015.6
20260830191549 31 109 1.6 6.4 0.10 0.10 0.10 81 1015.7
20260830191025 30 132 0.0 6.4 0.10 0.10 0.10 83 1015.7
20260830190521 28 0 0.0 3.2 0.10 0.10 0.10 87 1015.7
20260830190044 28 0 0.0 12.9 0.10 0.10 0.10 91 1015.9
20260830185524 27 309 0.0 16.1 0.08 0.08 0.08 85 1016.0
20260830185018 30 121 8.0 16.1 0.03 0.03 0.03 83 1016.2
20260830184542 30 76 8.0 16.1 0.00 0.00 0.00 75 1016.2
20260830184024 30 121 4.8 16.1 0.00 0.00 0.00 74 1016.2
20260830183526 31 81 8.0 16.1 0.00 0.00 0.00 70 1016.2
20260830183040 32 128 4.8 16.1 0.00 0.00 0.00 69 1016.2
20260830182526 31 131 6.4 11.3 0.00 0.00 0.00 70 1016.3
20260830182024 31 84 4.8 11.3 0.00 0.00 0.00 72 1016.3
20260830181543 32 92 3.2 11.3 0.00 0.00 0.00 69 1016.3
20260830181023 32 113 4.8 14.5 0.00 0.00 0.00 73 1016.4
20260830180521 32 115 4.8 14.5 0.00 0.00 0.00 70 1016.5
20260830180046 32 84 8.0 14.5 0.00 0.00 0.00 72 1016.5
20260830175518 32 87 8.0 17.7 0.00 0.00 0.00 71 1016.6
20260830175020 32 107 6.4 17.7 0.00 0.00 0.00 73 1016.6
20260830174549 31 83 4.8 16.1 0.00 0.00 0.00 70 1016.7
20260830174026 31 91 8.0 17.7 0.00 0.00 0.00 71 1016.8
20260830173523 31 66 9.7 17.7 0.00 0.00 0.00 73 1016.9
20260830173102 31 48 11.3 17.7 0.00 0.00 0.00 72 1017.0
20260830172530 31 76 6.4 17.7 0.00 0.00 0.00 74 1017.0
20260830172023 31 90 6.4 17.7 0.00 0.00 0.00 72 1016.9
20260830171544 31 77 6.4 16.1 0.00 0.00 0.00 74 1017.1
20260830171023 30 34 4.8 12.9 0.00 0.00 0.00 74 1017.1
20260830170524 30 61 6.4 12.9 0.00 0.00 0.00 78 1017.1
20260830170041 31 98 4.8 11.3 0.00 0.00 0.00 75 1017.2
20260830165526 30 73 3.2 12.9 0.00 0.00 0.00 81 1017.1
20260830165024 31 86 6.4 14.5 0.00 0.00 0.00 74 1017.3
20260830164541 31 90 3.2 14.5 0.00 0.00 0.00 78 1017.3
20260830164027 30 93 3.2 12.9 0.00 0.00 0.00 78 1017.3
20260830163526 29 0 0.0 12.9 0.00 0.00 0.00 80 1017.4
20260830163046 30 141 4.8 12.9 0.00 0.00 0.00 79 1017.4
20260830162523 29 129 0.0 4.8 0.00 0.00 0.00 78 1017.5
20260830162022 30 331 1.6 12.9 0.00 0.00 0.00 82 1017.5
20260830161541 30 229 1.6 12.9 0.00 0.00 0.00 79 1017.5
20260830161021 30 92 6.4 16.1 0.00 0.00 0.00 79 1017.6
20260830160521 30 89 6.4 16.1 0.00 0.00 0.00 79 1017.7
20260830160043 29 43 6.4 12.9 0.00 0.00 0.00 79 1017.7
20260830155525 29 71 4.8 12.9 0.00 0.00 0.00 81 1017.8
20260830155025 29 66 4.8 11.3 0.00 0.00 0.00 84 1017.8
20260830154540 28 86 1.6 12.9 0.00 0.00 0.00 85 1017.9
20260830154025 28 86 4.8 14.5 0.00 0.00 0.00 82 1017.9
20260830153525 29 63 3.2 14.5 0.00 0.00 0.00 80 1018.1
20260830153047 30 9 8.0 14.5 0.00 0.00 0.00 79 1018.0
20260830152523 29 88 3.2 11.3 0.00 0.00 0.00 84 1018.1
20260830152023 28 65 3.2 11.3 0.00 0.00 0.00 86 1018.2
20260830151544 28 0 1.6 16.1 0.00 0.00 0.00 85 1018.3
20260830151021 28 42 4.8 16.1 0.00 0.00 0.00 84 1018.3
20260830150525 29 46 6.4 12.9 0.00 0.00 0.00 85 1018.4
20260830150054 28 52 1.6 14.5 0.00 0.00 0.00 85 1018.4
20260830145524 28 86 8.0 14.5 0.00 0.00 0.00 83 1018.3
20260830145024 28 45 4.8 16.1 0.00 0.00 0.00 84 1018.4
20260830144543 28 64 6.4 16.1 0.00 0.00 0.00 85 1018.5
20260830144026 28 35 3.2 8.0 0.00 0.00 0.00 86 1018.4
20260830143523 27 67 4.8 9.7 0.00 0.00 0.00 86 1018.6
20260830143044 27 92 3.2 14.5 0.00 0.00 0.00 87 1018.5
20260830142526 28 105 3.2 14.5 0.00 0.00 0.00 87 1018.5
20260830142027 28 58 4.8 14.5 0.00 0.00 0.00 88 1018.4
20260830141541 27 83 3.2 11.3 0.00 0.00 0.00 87 1018.4
20260830141026 27 111 4.8 11.3 0.00 0.00 0.00 87 1018.4
20260830140528 27 81 1.6 9.7 0.00 0.00 0.00 88 1018.3
20260830140048 27 74 3.2 9.7 0.00 0.00 0.00 88 1018.4
20260830135523 27 43 3.2 8.0 0.00 0.00 0.00 88 1018.3
20260830135024 27 0 0.0 8.0 0.00 0.00 0.00 89 1018.4
20260830134546 27 78 3.2 9.7 0.00 0.00 0.00 89 1018.4
20260830134021 27 0 1.6 9.7 0.00 0.00 0.00 90 1018.3
20260830133521 26 41 3.2 9.7 0.00 0.00 0.00 89 1018.3
20260830133058 26 60 4.8 8.0 0.00 0.00 0.00 90 1018.3
20260830132524 26 83 1.6 6.4 0.00 0.00 0.00 91 1018.3
20260830132024 26 69 3.2 6.4 0.00 0.00 0.00 92 1018.3
20260830131549 26 73 1.6 8.0 0.00 0.00 0.00 93 1018.2
20260830131024 25 53 3.2 8.0 0.00 0.00 0.00 94 1018.2
20260830130524 25 20 0.0 8.0 0.00 0.00 0.00 95 1018.3
20260830130043 25 44 4.8 8.0 0.00 0.00 0.00 96 1018.2
20260830125522 25 51 3.2 8.0 0.00 0.00 0.00 96 1018.2
20260830125026 24 53 3.2 8.0 0.00 0.00 0.00 97 1018.0
20260830124551 24 29 0.0 6.4 0.00 0.00 0.00 97 1018.1
20260830124028 24 0 1.6 6.4 0.00 0.00 0.00 97 1018.0
20260830123524 24 52 1.6 6.4 0.00 0.00 0.00 97 1018.0
20260830123042 23 0 0.0 0.0 0.00 0.00 0.00 97 1018.1
20260830122523 23 0 0.0 0.0 0.00 0.00 0.00 97 1018.0
20260830122023 23 0 0.0 0.0 0.00 0.00 0.00 97 1017.7
20260830121542 23 0 0.0 0.0 0.00 0.00 0.00 97 1017.6
20260830121022 23 0 0.0 0.0 0.00 0.00 0.00 97 1017.6
20260830120523 22 0 0.0 0.0 0.00 0.00 0.00 97 1017.5
20260830120044 22 0 0.0 0.0 0.00 0.00 0.00 97 1017.4
20260830115518 22 0 0.0 0.0 0.00 0.00 0.00 97 1017.5
20260830115024 22 0 0.0 0.0 0.00 0.00 0.00 97 1017.4
20260830114608 22 0 0.0 0.0 0.00 0.00 0.00 97 1017.2
20260830114025 21 0 0.0 0.0 0.00 0.00 0.00 97 1017.2
20260830113523 21 0 0.0 0.0 0.00 0.00 0.00 96 1017.1
20260830113042 21 0 0.0 0.0 0.00 0.00 0.00 96 1017.0
20260830112524 21 0 0.0 0.0 0.00 0.00 0.00 97 1017.0
20260830112023 21 0 0.0 0.0 0.00 0.00 0.00 97 1016.9
20260830111542 21 0 0.0 0.0 0.00 0.00 0.00 96 1016.9
20260830111019 21 0 0.0 0.0 0.00 0.00 0.00 96 1016.8
20260830110519 21 0 0.0 0.0 0.00 0.00 0.00 97 1016.8
20260830110051 21 0 0.0 0.0 0.00 0.00 0.00 97 1016.8
20260830105528 21 0 0.0 0.0 0.00 0.00 0.00 96 1016.8
20260830105025 21 0 0.0 0.0 0.00 0.00 0.00 97 1016.7
20260830104549 21 0 0.0 0.0 0.00 0.00 0.00 97 1016.6
20260830104028 21 0 0.0 0.0 0.00 0.00 0.00 97 1016.5
20260830103523 21 0 0.0 0.0 0.00 0.00 0.00 96 1016.5
20260830103050 21 0 0.0 0.0 0.00 0.00 0.00 96 1016.4
20260830102524 21 0 0.0 0.0 0.00 0.00 0.00 96 1016.5
20260830102019 21 0 0.0 0.0 0.00 0.00 0.00 96 1016.5
20260830101540 21 0 0.0 0.0 0.00 0.00 0.00 96 1016.4
20260830101024 21 0 0.0 0.0 0.00 0.00 0.00 96 1016.4
20260830100525 21 0 0.0 0.0 0.00 0.00 0.00 96 1016.3
20260830100051 21 0 0.0 0.0 0.00 0.00 0.00 96 1016.2
20260830095525 21 0 0.0 0.0 0.00 0.00 0.00 96 1016.2
20260830095022 21 0 0.0 0.0 0.00 0.00 0.00 96 1016.2
20260830094543 21 0 0.0 0.0 0.00 0.00 0.00 96 1016.2
20260830094023 21 0 0.0 0.0 0.00 0.00 0.00 96 1016.1
20260830093521 21 0 0.0 0.0 0.00 0.00 0.00 96 1016.1
20260830093053 21 0 0.0 0.0 0.00 0.00 0.00 96 1016.0
20260830092521 21 0 0.0 0.0 0.00 0.00 0.00 96 1016.1
20260830092021 21 0 0.0 0.0 0.00 0.00 0.00 96 1016.1
20260830091549 21 0 0.0 0.0 0.00 0.00 0.00 96 1016.1
20260830091025 21 0 0.0 0.0 0.00 0.00 0.00 96 1016.1
20260830090528 21 0 0.0 0.0 0.00 0.00 0.00 96 1016.2
20260830090042 21 0 0.0 0.0 0.00 0.00 0.00 96 1016.1
20260830085522 21 0 0.0 0.0 0.00 0.00 0.00 96 1016.2
20260830085018 21 0 0.0 0.0 0.00 0.00 0.00 96 1016.3
20260830084543 22 0 0.0 0.0 0.00 0.00 0.00 96 1016.3
20260830084021 22 0 0.0 0.0 0.00 0.00 0.00 96 1016.3
20260830083525 22 0 0.0 0.0 0.00 0.00 0.00 96 1016.3
20260830083040 22 0 0.0 1.6 0.00 0.00 0.00 96 1016.4
20260830082526 22 0 0.0 3.2 0.00 0.00 0.00 96 1016.4
20260830082023 22 0 0.0 3.2 0.00 0.00 0.00 96 1016.5
20260830081543 22 46 0.0 3.2 0.00 0.00 0.00 96 1016.6
20260830081023 22 0 0.0 0.0 0.00 0.00 0.00 96 1016.7
20260830080524 22 0 0.0 0.0 0.00 0.00 0.00 96 1016.7
20260830080045 22 0 0.0 4.8 0.00 0.00 0.00 96 1016.6
20260830075523 22 0 0.0 4.8 0.00 0.00 0.00 96 1016.6
20260830075025 22 55 0.0 3.2 0.00 0.00 0.00 96 1016.7
20260830074542 22 0 0.0 3.2 0.00 0.00 0.00 96 1016.6
20260830074026 22 71 1.6 3.2 0.00 0.00 0.00 96 1016.8
20260830073525 22 74 0.0 4.8 0.00 0.00 0.00 96 1016.8
20260830073045 22 0 0.0 4.8 0.00 0.00 0.00 96 1016.7
20260830072523 22 74 1.6 4.8 0.00 0.00 0.00 96 1016.7
20260830072020 22 88 1.6 3.2 0.00 0.00 0.00 96 1016.7
20260830071612 22 0 0.0 1.6 0.00 0.00 0.00 96 1016.7
20260830071019 22 0 0.0 3.2 0.00 0.00 0.00 96 1016.7
20260830070522 22 0 0.0 3.2 0.00 0.00 0.00 96 1016.8
20260830070042 22 49 0.0 4.8 0.00 0.00 0.00 96 1016.7
20260830065524 22 49 1.6 4.8 0.00 0.00 0.00 96 1016.8
20260830065028 22 46 1.6 4.8 0.00 0.00 0.00 96 1016.9
20260830064549 22 41 1.6 4.8 0.00 0.00 0.00 95 1017.0
20260830064025 22 0 0.0 0.0 0.00 0.00 0.00 96 1016.8
20260830063524 22 0 0.0 0.0 0.00 0.00 0.00 95 1016.9
20260830063046 22 0 0.0 0.0 0.00 0.00 0.00 95 1017.0
20260830062523 22 0 0.0 0.0 0.00 0.00 0.00 95 1016.9
20260830062022 22 0 0.0 0.0 0.00 0.00 0.00 95 1016.9
20260830061542 22 0 0.0 0.0 0.00 0.00 0.00 95 1016.9